Regional Weather Roundup
Issued by NWS

Home | Current Version | Previous Version | Text Only | Print | Product List | Glossary On
Versions: 1 2 3 4 5 6 7 8 9 10 11 12 13 14 15 16 17 18 19 20 21 22 23 24 25 26 27 28 29 30 31 32 33 34 35 36 37 38 39 40 41 42 43 44 45 46 47 48 49 50
000
ASUS46 KSEW 241610
RWRWA

WASHINGTON REGIONAL WEATHER ROUNDUP
NATIONAL WEATHER SERVICE SEATTLE WA
800 AM PST FRI NOV 24 2017

NOTE:"FAIR" INDICATES FEW OR NO CLOUDS BELOW 12,000 FEET WITH NO
SIGNIFICANT WEATHER AND/OR OBSTRUCTIONS TO VISIBILITY.

WAZ507-509-555>559-241700-
SEATTLE, TACOMA, EVERETT, AND VICINITY

CITY           SKY/WX    TMP DP  RH WIND       PRES   REMARKS
EVERETT        CLOUDY    46  41  82 SE15      30.03F
BOEING FIELD   MOCLDY    48  41  76 S9        30.08R
RENTON         CLOUDY    49  40  71 SE7       30.08R
SEATAC AIRPORT MOCLDY    47  40  76 S13       30.07R
JBLM-MCCHORD   CLOUDY    44  44  99 S7        30.09R
PUYALLUP       MOCLDY    46  41  81 VRB5      30.09R
BREMERTON      CLOUDY    44  42  93 S5        30.07R
JBLM-FT LEWIS  MOCLDY    44  44 100 SE6       30.08R
TACOMA NARROWS CLOUDY    46  42  86 S9        30.08R
$$

WAZ001-503-506-510-514-515-241700-
NORTH INTERIOR

CITY           SKY/WX    TMP DP  RH WIND       PRES   REMARKS
BELLINGHAM     CLOUDY    48  43  82 S12       30.02R
FRIDAY HARBOR  CLOUDY    46  43  89 SE8       30.02R
EASTSOUND      CLOUDY    48  45  87 VRB7      30.01S
PORT ANGELES   CLOUDY    43  42  97 SW3       30.01S
EDIZ HOOK      CLOUDY    46  43  90 SW5       30.00F
PORT TOWNSEND  MOCLDY    43  43 100 CALM      30.01F
NAS WHIDBEY    CLOUDY    48  41  76 E6        30.06S
ARLINGTON      CLOUDY    47  42  83 SE15      30.05S
BURLINGTON     CLOUDY    46  43  87 SE8       30.03S
$$

WAZ020-022-039-040-504-511-512-241700-
SOUTHWEST INTERIOR

CITY           SKY/WX    TMP DP  RH WIND       PRES   REMARKS
SHELTON        CLOUDY    44  42  93 CALM      30.05R
OLYMPIA        CLOUDY    45  43  93 SW10      30.09R
CHEHALIS       CLOUDY    46  45  93 S9        30.11R
KELSO          CLOUDY    45  44  97 SE9       30.14S
VANCOUVER      MOCLDY    47  45  93 E3        30.15R
SCAPPOOSE, OR  FOG       40  40 100 NE3       30.14S VSB 3/4
PORTLAND, OR   MOCLDY    47  45  93 SE8       30.15S
$$

WAZ021-516-517-241700-
WASHINGTON COAST

CITY           SKY/WX    TMP DP  RH WIND       PRES   REMARKS
FORKS          LGT RAIN  48  45  89 SE5       30.01R
HOQUIAM        CLOUDY    48  45  89 SE12      30.07R
ASTORIA, OR    CLOUDY    46  43  89 SE7       30.09S
$$

WAZ019-023-024-040-567>569-241700-
CASCADE MOUNTAINS AND COLUMBIA GORGE

CITY           SKY/WX    TMP DP  RH WIND       PRES   REMARKS
STAMPEDE PASS  CLOUDY    32  30  92 VRB5      30.00R
TROUTDALE, OR  CLOUDY    48  44  86 E3        30.16R
HOOD RIVER, OR DRIZZLE   41  39  93 S6        30.14R
THE DALLES, OR PTCLDY    42  36  79 SE8       30.13R
$$

WAZ026-027-041>044-520-521-241700-
EAST SLOPES

CITY           SKY/WX    TMP DP  RH WIND       PRES   REMARKS
OMAK           CLOUDY    40  34  79 S6        29.97R
WENATCHEE      CLEAR     40  31  70 N7        30.01R
ELLENSBURG     CLEAR     40  30  67 NW9       30.04R
YAKIMA         CLEAR     33  29  85 SW5       30.08R
SUNNYSIDE ARPT MOSUNNY   35  32  88 CALM      30.08R
YAKIMA TC      FAIR      32  29  90 CALM      30.04R
$$

WAZ028-034-035-241700-
COLUMBIA BASIN

CITY           SKY/WX    TMP DP  RH WIND       PRES   REMARKS
EPHRATA        CLEAR     42  26  53 S8        30.00R
MOSES LAKE     CLEAR     43  34  70 S8        30.02R
PASCO          CLEAR     46  38  73 W3        30.09R
RICHLAND ARPT  SUNNY     45  39  79 SW7       30.09R
HERMISTON, OR  CLEAR     42  35  76 S9        30.10R
$$

WAZ036>038-241700-
NORTHEAST WASHINGTON

CITY           SKY/WX    TMP DP  RH WIND       PRES   REMARKS
SPOKANE GEIGER MOCLDY    36  35  96 S14       30.01R
SPOKANE FELTS  MOCLDY    40  35  83 S6        30.04R
FAIRCHILD AFB  NOT AVBL
COEURDALENE,ID MOCLDY    35  32  88 CALM      30.04
DEER PARK      CLOUDY    37  34  89 S7        30.03R
$$

WAZ029>033-241700-
SOUTHEAST WASHINGTON

CITY           SKY/WX    TMP DP  RH WIND       PRES   REMARKS
PULLMAN        MOCLDY    40  34  79 SW8       30.06R
LEWISTON, ID   MOCLDY    42  35  76 CALM      30.08R
WALLA WALLA    PTCLDY    45  35  68 S12       30.10R
PENDLETON, OR  PTCLDY    39  33  79 S9        30.10R
$$



USA.gov is the U.S. government's official web portal to all federal, state and local government web resources and services.